Theta_e
293 293 292 294 296 299 300 300 301 302 304 306 307 308 309 309 311 312 314 316 316 317 317 318 318 318 318 316 314 312 310 307 305 304 303 299 297 296 295 295 293 292 292 292 291 291 291 291 291 290 290 290 289 288 288 287 289 288 287 287 288 287
291 291 292 295 296 298 300 302 302 302 304 305 306 307 308 308 308 309 311 313 314 315 315 315 316 316 315 312 311 310 308 305 303 301 298 297 296 296 295 293 292 291 291 290 290 290 289 289 289 289 289 289 289 288 288 288 288 287 287 286 287 287
290 290 291 293 295 299 302 303 303 303 304 305 306 306 307 307 307 308 309 310 311 310 312 311 311 310 310 309 309 308 306 303 301 299 298 295 294 293 292 292 291 291 290 290 290 289 289 288 288 288 288 288 288 288 288 287 287 287 286 286 286 286
290 289 288 288 291 297 301 302 303 303 304 305 305 306 306 306 306 307 308 308 309 308 309 307 307 307 306 306 305 303 301 299 298 295 293 294 292 292 292 291 290 290 289 289 288 288 288 287 287 287 288 288 287 287 287 287 287 286 286 286 285 285
290 290 290 290 292 296 299 300 302 303 303 303 303 304 304 305 305 305 305 306 306 305 304 303 302 302 302 301 299 298 296 294 293 293 293 292 291 291 291 290 289 288 288 288 288 287 287 287 287 287 287 287 287 286 286 286 286 286 286 285 285 285
287 288 289 290 290 294 297 299 301 302 302 302 302 302 301 301 302 302 303 303 301 300 299 299 298 299 299 298 296 294 293 292 292 292 292 291 290 290 289 289 288 288 287 287 286 287 286 286 286 286 287 287 287 286 286 285 286 286 285 285 284 284
287 290 290 290 290 292 295 298 299 300 300 300 299 299 298 298 298 299 299 299 297 296 297 296 296 297 296 295 294 292 291 291 291 291 290 290 289 288 287 287 287 287 287 286 286 286 286 286 286 285 285 286 286 286 285 285 285 285 285 285 284 284
289 288 288 290 289 291 294 296 298 297 298 297 296 296 295 295 296 297 297 297 297 295 294 294 294 295 294 293 292 291 291 290 290 290 289 289 288 287 287 286 286 286 286 286 286 286 285 285 286 285 285 285 285 285 285 285 285 285 284 284 284 284
289 289 289 290 289 289 292 295 296 295 295 295 294 295 295 294 295 295 296 295 296 295 293 293 293 293 292 292 291 290 290 290 289 289 288 288 287 287 286 286 285 286 286 285 285 285 285 285 285 285 285 285 285 285 285 285 284 284 284 284 284 283
289 289 289 288 289 288 289 290 294 295 294 294 293 293 293 293 294 294 294 293 293 293 293 293 292 292 291 290 290 289 289 288 288 288 287 287 286 286 285 285 285 284 284 284 284 284 284 284 284 285 285 285 285 285 285 284 284 284 283 283 283 283
290 290 289 289 288 288 288 289 290 291 292 293 293 292 292 291 293 293 293 292 293 292 291 291 290 290 289 289 289 288 287 287 287 286 286 286 285 285 285 285 284 283 283 283 283 284 284 285 285 285 285 285 285 285 284 284 283 283 282 282 282 282
290 290 290 289 289 288 288 288 289 291 292 292 291 291 292 291 292 292 292 292 292 291 290 290 289 289 289 288 288 287 287 286 285 285 285 285 284 284 283 283 283 283 283 282 283 284 285 285 285 284 286 286 285 285 284 283 283 282 282 281 281 281
291 291 290 290 290 289 289 289 290 291 291 292 291 291 290 291 292 292 292 292 291 290 290 289 289 288 288 288 287 286 286 285 285 284 284 283 283 283 282 282 282 282 282 282 283 284 285 285 286 287 288 287 285 284 283 283 282 282 281 281 280 279
292 292 292 292 291 291 290 290 289 289 290 291 291 291 289 290 291 292 292 292 290 289 289 289 288 288 288 287 286 285 285 284 284 283 283 282 282 282 282 282 282 281 281 282 283 284 285 286 288 289 288 287 285 283 282 282 282 281 281 280 280 280
292 293 293 292 292 292 291 291 290 289 290 290 290 289 289 290 291 292 292 290 290 289 289 288 288 288 287 286 285 285 284 283 283 282 282 282 282 281 281 281 281 281 281 281 282 283 284 286 289 289 287 286 285 284 282 281 281 280 280 280 279 279
292 292 292 293 293 292 291 290 291 290 290 289 288 288 289 290 290 291 290 289 289 289 288 287 287 287 286 286 285 284 283 283 283 282 282 281 281 281 280 280 280 280 280 281 282 283 284 286 288 288 287 285 285 284 282 281 280 280 279 279 279 279
292 290 289 291 291 290 289 289 290 288 288 288 287 288 288 289 289 290 289 288 288 288 287 287 287 286 285 284 284 283 283 283 282 281 281 281 281 280 280 279 279 279 279 280 281 282 283 285 288 288 286 285 284 283 281 280 280 279 279 279 279 279
292 292 292 290 290 290 290 290 289 288 288 288 288 287 288 288 288 288 288 288 287 287 287 286 286 286 284 284 283 283 282 282 281 280 280 280 279 279 279 279 279 278 278 280 281 282 282 285 287 287 286 285 284 282 280 279 279 278 278 278 278 278
292 292 289 289 290 289 289 289 288 288 287 287 287 287 287 287 287 287 287 287 286 286 286 286 286 285 284 283 283 282 282 281 280 280 279 279 279 278 278 278 278 278 278 278 280 281 282 283 286 286 285 284 283 280 279 279 278 278 278 278 278 277
288 288 289 288 289 289 289 288 288 288 287 287 287 287 286 287 287 288 287 287 286 286 285 285 285 284 283 283 283 282 282 281 280 279 279 279 278 278 277 277 277 277 277 278 278 280 281 281 284 286 285 283 282 279 278 278 277 277 277 277 277 277
287 287 287 288 288 288 288 288 288 288 287 287 286 287 287 287 288 287 287 287 286 286 285 285 285 284 283 283 283 282 281 280 279 279 279 279 278 277 276 276 276 275 275 276 277 279 279 280 283 285 284 283 281 279 278 277 277 277 277 276 276 277
287 287 288 288 288 287 287 288 288 287 287 287 287 286 287 287 288 288 287 287 286 285 285 284 284 284 283 283 282 282 281 279 278 277 278 277 277 276 276 276 276 275 275 275 276 277 278 279 281 283 284 283 281 280 278 277 277 276 276 276 275 274
288 288 288 288 287 287 287 288 288 287 287 287 286 286 287 287 287 286 286 286 285 284 283 283 283 283 282 282 281 280 278 278 278 277 276 276 275 275 275 275 275 274 274 275 275 275 276 277 280 282 284 283 282 281 279 277 277 277 276 275 275 275
285 285 284 284 286 286 287 287 287 287 287 286 286 287 286 286 286 285 285 284 284 283 282 281 281 281 280 279 279 278 277 276 276 276 276 276 275 274 274 274 274 274 274 274 274 275 275 277 279 281 282 283 282 281 280 278 278 278 276 275 275 275
285 284 284 284 285 286 287 287 287 286 286 286 286 285 286 285 285 285 284 283 282 281 281 280 279 279 278 278 278 277 276 275 275 275 275 275 275 274 274 273 273 273 273 273 274 275 275 276 277 279 280 282 282 282 281 280 279 280 277 275 274 274
282 283 282 283 284 285 286 287 287 286 286 286 285 284 284 284 284 283 282 281 281 280 279 278 278 278 277 277 277 276 275 275 274 274 274 275 275 274 274 273 273 273 273 273 273 273 274 275 275 278 279 280 281 282 281 281 280 279 277 276 275 275
282 282 282 282 282 283 284 285 287 285 285 283 283 283 283 282 282 282 281 280 279 278 277 277 277 276 276 276 276 276 275 274 274 274 274 274 275 275 274 274 274 274 274 273 273 273 273 274 274 276 278 279 280 281 281 280 280 280 279 276 275 275
281 281 281 280 280 281 282 282 283 285 283 281 281 282 282 281 281 280 279 278 277 276 275 275 275 275 275 276 276 276 276 275 274 275 274 275 275 275 275 274 274 274 274 273 273 273 272 273 273 274 275 277 278 279 280 279 279 278 278 276 275 277
281 280 279 279 277 277 279 279 279 280 279 279 280 280 280 279 279 278 277 276 275 274 275 275 275 274 274 274 274 275 275 275 275 275 274 275 275 275 275 275 274 274 274 273 273 273 272 272 272 272 274 275 276 276 277 277 276 277 277 275 275 275
280 278 279 278 277 276 276 275 275 276 277 278 278 278 278 278 278 277 276 275 274 274 274 275 273 273 273 273 273 274 274 274 275 275 275 275 275 275 275 275 274 274 274 274 273 272 271 271 271 272 273 274 274 274 275 275 274 275 274 273 274 271
276 276 277 276 274 274 274 273 273 274 276 277 276 278 278 277 276 275 274 273 273 273 273 273 273 273 273 273 272 272 272 274 274 275 275 275 276 277 277 276 276 276 276 276 273 271 271 271 271 272 275 274 276 274 274 273 274 274 273 274 273 267
274 274 274 273 271 272 273 272 272 273 274 274 276 277 278 276 275 274 273 273 273 272 273 272 272 272 272 272 272 272 270 274 276 275 274 274 277 278 278 279 277 277 276 276 275 274 273 272 273 276 277 278 278 278 277 276 276 276 274 276 275 268
271 272 271 271 270 270 271 271 271 272 272 273 274 276 276 276 275 274 272 272 272 272 272 272 271 271 271 271 271 271 271 271 273 277 277 277 276 277 277 278 279 279 278 276 274 275 276 276 277 278 278 279 279 279 278 278 278 277 277 276 269 264
272 272 272 270 268 269 269 270 270 269 269 271 272 273 275 275 276 275 273 272 272 272 271 271 271 270 270 270 271 271 271 271 271 271 276 277 277 278 278 278 278 278 279 278 275 274 275 278 279 279 279 280 279 279 278 278 278 278 277 275 272 263
271 270 269 268 268 268 269 268 268 268 268 269 270 271 273 273 274 274 272 271 271 271 271 271 270 270 270 270 270 270 270 271 272 272 272 274 278 278 278 279 279 279 278 278 277 277 277 278 279 280 280 279 279 278 278 278 278 277 276 275 267 263
268 268 267 267 267 267 267 266 266 267 266 266 268 269 270 270 270 270 272 271 271 271 270 270 270 270 270 270 270 270 271 271 272 272 273 272 274 276 277 278 279 278 278 278 278 278 278 279 280 280 279 279 278 278 277 277 275 275 274 269 262 263
268 268 268 268 267 267 266 266 266 265 264 265 266 267 268 268 268 267 269 269 270 271 271 270 270 270 269 269 269 270 270 271 271 272 272 272 272 273 273 274 275 277 278 277 277 278 278 279 279 279 279 278 278 277 277 276 271 268 265 264 261 261
267 266 266 266 266 265 266 266 266 265 264 264 265 266 266 265 267 267 268 268 269 269 269 269 269 269 269 269 269 269 270 270 271 271 271 272 272 272 272 272 273 274 276 277 277 277 278 278 278 278 278 277 278 277 277 268 266 265 263 262 261 260
Wind_Speed
5 5 5 4 5 5 5 5 6 5 5 6 6 8 7 7 7 7 6 8 8 9 10 11 10 9 9 9 10 9 10 10 8 9 8 8 8 8 8 9 9 9 7 8 8 7 8 8 8 8 8 7 6 5 6 5 5 7 7 4 5 4
5 6 6 6 6 6 6 6 5 6 5 6 6 4 5 5 6 7 8 8 7 8 7 7 8 9 9 9 10 9 10 10 10 10 10 10 8 7 9 9 10 10 9 7 8 8 8 8 7 7 8 7 6 6 6 5 6 8 7 5 4 4
5 5 5 5 5 4 5 6 5 5 5 6 6 7 7 7 6 6 6 6 6 7 9 8 7 8 7 9 10 11 10 10 10 10 10 9 9 9 9 10 10 10 9 9 8 9 9 9 8 6 7 7 7 5 6 6 7 8 6 5 6 4
4 3 3 3 4 5 6 5 5 6 6 6 6 6 6 6 7 7 7 6 6 7 7 8 6 8 8 9 9 9 9 9 11 10 8 10 9 10 11 11 9 9 9 9 9 8 8 8 8 7 7 8 8 7 4 6 7 8 6 5 6 4
5 6 7 7 7 6 6 5 6 6 6 5 5 6 6 7 7 6 6 6 7 7 6 7 7 8 8 9 8 9 10 8 8 10 11 9 9 7 10 11 10 10 9 9 9 9 8 8 8 6 7 8 9 8 6 5 6 7 7 7 5 4
3 4 5 6 6 6 7 6 5 6 6 6 6 7 6 5 5 6 6 6 6 7 7 8 7 9 9 9 8 9 8 8 7 8 10 10 9 11 8 10 10 10 9 10 9 9 9 8 7 6 6 8 9 8 8 6 6 6 6 6 5 4
6 7 6 6 6 5 6 6 6 6 6 5 6 4 4 5 5 6 6 7 8 7 8 8 8 8 9 9 8 9 9 8 8 8 11 10 10 10 11 8 8 9 10 10 11 10 9 8 8 8 7 6 6 8 7 7 7 6 6 5 5 4
4 3 4 5 6 7 6 6 6 5 5 6 4 5 4 4 4 6 7 7 9 8 8 8 8 9 9 9 9 10 10 10 9 10 8 10 13 10 10 11 8 9 10 9 9 9 9 8 8 8 8 7 7 7 7 7 7 6 5 5 4 4
7 7 6 6 5 5 6 6 6 5 5 5 4 5 6 6 6 6 7 7 7 9 8 8 8 8 8 9 9 8 9 9 9 10 11 9 11 12 11 9 9 7 9 9 9 9 8 8 7 8 8 7 7 8 8 7 6 6 5 5 5 4
6 7 8 7 8 6 5 4 4 5 6 6 5 5 5 6 6 6 6 7 6 7 9 8 7 7 7 7 8 9 8 9 9 9 9 10 11 11 11 10 10 8 8 9 9 7 7 8 8 7 7 7 7 7 7 6 7 7 6 5 4 4
9 9 8 9 6 7 7 6 5 4 3 4 5 6 6 5 6 6 6 6 6 6 5 6 6 6 8 8 8 9 10 9 9 9 9 9 9 8 9 8 9 11 10 8 8 7 6 7 7 7 7 8 7 6 7 7 7 7 6 5 5 4
8 8 8 7 9 8 7 7 7 8 8 7 6 6 5 6 5 6 6 6 5 6 6 6 6 7 7 8 9 9 10 10 10 9 9 9 9 9 9 8 9 9 10 10 8 7 7 6 4 7 9 7 7 7 6 6 6 6 6 6 5 4
8 8 9 10 9 10 9 9 9 8 9 8 8 7 5 6 7 5 7 6 6 6 7 7 7 7 8 8 8 9 10 10 9 9 9 9 9 9 9 9 10 9 9 10 9 9 7 6 6 12 12 12 11 7 7 7 6 6 5 5 5 5
10 11 12 11 11 11 11 10 10 9 10 8 8 7 6 7 6 7 7 7 7 7 7 7 8 8 8 8 10 10 9 9 9 9 10 9 10 9 8 9 10 10 9 8 9 9 8 7 9 14 14 13 11 8 7 6 6 5 5 5 5 4
12 12 10 9 11 12 13 11 10 12 11 10 8 7 8 8 8 7 7 7 8 8 7 8 8 8 8 8 9 9 9 9 9 9 9 10 9 9 10 10 11 10 9 9 10 9 8 7 12 14 14 13 12 12 8 5 5 6 5 5 5 4
7 8 9 10 10 10 8 10 11 9 7 9 8 10 9 9 8 7 7 7 8 8 8 8 8 9 9 9 9 9 10 9 10 8 8 8 8 9 9 8 10 10 9 9 10 9 8 7 11 14 14 13 13 12 8 5 6 6 6 5 4 4
6 5 7 9 9 7 8 8 7 6 7 8 9 8 9 9 9 8 8 9 8 8 8 9 9 9 9 9 9 9 9 9 8 9 8 9 10 10 11 10 10 9 7 9 7 9 8 6 13 14 14 13 13 12 9 6 5 5 5 5 4 4
10 10 10 5 7 8 8 9 7 8 8 7 9 9 9 9 9 9 8 9 9 10 10 10 10 10 10 10 9 10 10 9 10 11 8 8 6 5 6 5 6 9 8 7 8 9 9 7 14 14 14 13 13 12 6 6 6 6 5 5 4 4
7 7 4 5 7 8 9 7 8 8 8 9 9 9 9 9 10 10 10 10 10 10 10 10 11 11 10 10 10 11 11 11 10 8 7 9 8 9 8 8 7 6 8 9 8 9 8 7 12 14 14 13 13 8 5 5 5 5 5 4 4 3
4 3 6 6 7 7 6 7 9 9 9 8 8 9 9 10 11 10 11 10 9 10 10 11 11 11 11 11 13 12 10 8 6 8 8 11 11 9 8 8 8 6 6 9 8 8 9 7 10 15 14 13 12 8 6 5 5 5 4 4 4 3
4 4 4 5 7 6 7 9 10 9 9 9 9 9 10 11 11 11 11 11 10 10 10 9 9 10 11 11 11 10 11 10 10 7 6 6 7 8 7 7 8 7 5 4 6 7 8 8 9 15 14 14 13 8 5 5 5 6 5 4 3 3
4 3 6 8 6 6 8 9 9 8 9 8 8 9 11 11 8 5 5 6 7 7 8 8 9 9 10 11 9 8 8 7 8 8 8 7 6 8 7 7 7 9 7 6 6 6 6 8 7 10 16 14 13 12 6 5 6 6 6 5 4 3
3 4 3 2 5 7 7 8 8 8 7 7 8 11 7 4 5 6 6 7 7 7 7 6 7 8 6 6 7 6 6 6 8 8 8 9 7 8 8 8 8 8 7 6 5 5 5 5 7 9 15 14 14 14 10 5 5 6 6 5 5 4
3 4 3 3 6 7 8 8 8 7 7 7 9 7 5 6 7 7 7 8 7 7 7 7 6 6 7 7 8 9 7 5 6 7 9 8 9 11 10 9 8 8 6 5 5 4 5 3 5 8 13 14 14 13 11 6 6 6 6 6 5 4
4 4 3 3 5 6 7 8 8 7 6 8 7 5 6 6 7 8 8 8 8 8 9 8 9 9 8 9 9 10 9 8 8 8 8 10 10 10 11 10 9 8 7 4 4 3 4 4 4 7 8 13 14 14 12 11 8 11 6 6 6 5
4 4 3 2 4 5 6 8 7 7 7 7 4 6 6 7 7 7 8 8 8 8 8 8 9 8 8 10 10 9 10 9 8 8 8 9 10 10 10 8 7 7 8 7 6 4 4 3 3 6 9 10 14 13 12 12 11 11 6 5 5 4
6 5 4 3 2 2 3 3 6 6 6 3 5 6 7 6 7 7 7 7 7 7 7 7 7 8 8 8 10 11 10 10 10 10 7 9 9 9 10 9 7 7 7 7 7 6 6 5 5 5 9 12 12 12 12 11 11 11 11 6 5 5
6 5 6 5 3 2 1 1 2 5 3 4 4 5 6 7 7 7 6 6 6 6 7 8 5 5 6 7 6 8 8 11 11 10 9 8 8 8 9 9 8 7 7 7 6 7 7 6 5 6 6 8 9 9 11 11 10 10 10 8 6 7
6 5 5 4 3 3 2 2 2 3 5 5 4 5 6 6 7 6 6 6 6 5 6 8 7 6 5 5 4 4 5 5 6 7 8 9 9 9 8 9 9 9 9 9 8 7 6 6 6 6 7 7 7 8 8 8 7 9 9 6 6 6
5 5 5 4 3 2 3 3 3 3 5 4 5 6 6 6 7 7 6 6 5 5 5 6 7 7 6 5 6 6 6 5 6 8 10 12 12 12 10 10 10 11 11 11 10 9 6 6 6 7 9 9 8 8 7 7 6 7 6 6 6 5
6 4 5 3 2 2 3 4 3 3 4 5 5 6 7 6 5 6 6 6 6 5 4 5 6 6 6 6 5 3 4 7 8 8 6 4 3 5 9 12 12 11 10 9 12 11 7 6 9 12 11 10 14 12 10 9 8 7 6 8 10 6
5 5 4 2 2 3 4 4 3 3 3 3 4 5 7 7 6 6 6 6 6 6 6 5 5 5 5 6 6 6 2 1 5 4 5 6 3 1 2 4 7 7 8 9 10 13 13 15 14 13 19 18 18 17 16 12 13 12 8 11 16 8
4 5 4 2 2 3 3 4 3 3 2 2 3 5 6 7 6 5 5 6 5 6 6 5 5 5 5 5 6 5 6 3 1 3 3 4 4 4 4 5 4 6 9 6 8 7 2 0 10 19 19 19 18 17 16 16 15 16 15 15 10 4
3 3 2 1 3 4 3 4 3 2 2 2 1 3 5 6 7 7 6 6 5 6 6 5 5 5 5 5 5 6 6 5 5 2 3 6 6 7 8 8 8 8 10 9 7 6 2 7 14 18 19 18 18 17 16 16 16 16 16 16 11 6
1 2 2 3 3 4 3 4 3 3 2 1 1 2 4 4 4 5 5 5 6 6 6 6 6 6 6 7 7 7 6 7 7 8 5 3 6 7 8 9 10 11 11 12 12 13 8 10 15 19 18 17 17 16 16 16 16 15 15 15 7 6
3 3 3 3 4 3 3 2 2 3 3 2 1 1 3 3 3 4 5 6 6 6 6 6 6 6 6 6 6 6 7 7 7 6 6 5 3 4 5 8 10 11 12 12 14 13 13 15 17 18 17 17 17 16 16 15 10 13 14 10 6 7
4 4 4 4 3 3 2 2 2 1 0 0 0 1 2 2 2 3 3 7 6 5 5 5 5 5 5 5 6 6 7 7 6 6 7 8 9 9 8 7 7 10 12 9 10 12 14 15 17 17 17 18 17 17 17 15 9 8 4 3 3 5
6 4 4 3 3 3 3 3 3 2 1 0 1 1 2 2 3 3 4 3 4 4 4 5 5 5 6 6 6 6 6 5 5 6 6 5 6 6 6 4 5 4 7 12 10 12 13 15 16 16 17 17 18 17 19 10 9 7 6 6 4 5
Wind_Direction
205 195 207 200 207 207 199 180 173 180 191 194 198 198 198 191 197 203 205 199 197 197 195 192 189 187 180 173 160 156 154 153 156 151 140 129 136 133 131 125 118 120 125 123 124 129 120 109 109 109 109 119 120 128 125 130 125 107 98 90 97 109
198 191 186 186 195 193 185 171 167 181 191 193 201 200 191 190 201 207 208 201 195 193 189 190 183 177 170 163 157 158 160 156 152 142 143 148 140 139 136 132 134 128 134 135 135 129 122 115 111 114 119 119 119 133 126 134 123 104 103 103 88 98
210 198 195 189 187 192 166 162 171 180 180 200 192 196 196 202 204 201 211 189 194 180 181 174 167 164 157 156 164 158 155 154 147 150 149 140 144 140 136 136 139 138 138 140 143 137 133 129 125 128 129 124 121 116 119 125 115 109 111 110 94 83
218 193 159 172 173 186 168 164 168 177 184 193 187 189 198 194 194 199 192 191 179 179 167 162 157 152 152 155 154 149 147 154 151 141 143 146 145 145 141 136 135 136 140 143 138 130 125 121 124 137 142 130 122 114 120 120 115 109 109 102 97 98
193 186 183 180 185 181 176 179 182 178 181 183 189 188 197 189 186 181 173 168 166 163 155 150 153 152 152 150 150 149 148 147 145 147 144 141 140 137 137 137 137 141 144 137 134 130 124 126 131 145 140 129 126 122 111 109 110 110 111 103 107 112
181 172 192 189 192 190 185 189 191 179 181 185 187 195 182 169 165 160 159 157 152 150 149 154 152 153 151 151 152 149 143 140 149 143 133 138 138 132 124 132 136 142 148 139 134 132 128 129 138 136 127 127 128 119 117 115 104 101 104 112 121 123
198 206 199 195 190 193 192 192 193 187 183 179 184 181 165 153 150 150 153 150 145 150 153 152 154 153 153 149 150 149 141 142 143 137 137 137 127 130 130 126 141 142 147 146 142 137 137 143 141 129 123 117 114 118 120 114 108 107 109 113 117 119
231 229 216 211 204 196 194 194 191 193 177 180 167 154 148 154 151 154 152 158 152 154 156 156 155 158 155 149 148 149 145 143 144 138 136 138 130 131 140 140 154 156 146 138 135 130 131 136 134 127 128 122 121 117 109 107 108 112 115 115 112 112
223 221 223 221 213 207 202 194 190 184 177 168 161 163 163 163 162 160 159 164 163 155 160 162 160 153 151 150 146 142 141 142 142 141 133 141 141 143 140 146 140 146 134 125 123 130 137 133 129 129 125 126 126 118 114 114 116 113 110 103 104 99
223 219 217 212 214 206 211 212 203 184 180 177 177 172 171 167 160 162 160 160 160 163 160 160 154 147 144 139 138 140 138 134 135 134 133 140 144 146 147 151 145 132 121 120 121 125 130 130 128 124 126 129 124 117 117 124 123 118 110 106 100 99
224 219 214 214 205 205 197 191 198 197 198 194 181 175 181 171 162 162 161 158 163 160 153 140 137 130 136 137 135 134 120 119 121 131 137 142 139 138 142 138 132 129 116 111 121 130 132 129 134 135 146 132 117 117 124 128 125 122 120 116 109 103
229 227 220 214 206 201 193 192 193 191 188 191 190 190 182 160 171 161 159 161 157 151 147 142 139 141 139 140 140 139 126 125 134 141 141 142 138 136 138 133 132 130 130 129 131 128 127 127 123 146 136 121 127 132 126 120 119 121 126 129 126 111
226 222 218 218 208 204 196 196 194 193 194 191 183 186 170 166 169 170 164 165 155 152 145 145 147 142 148 146 140 135 145 145 144 143 141 139 142 143 144 139 135 131 131 136 139 135 130 130 137 143 130 128 130 130 128 126 124 125 129 133 125 117
222 219 218 209 204 200 198 194 191 186 200 187 184 175 155 171 174 173 175 162 154 155 157 153 148 152 152 149 140 138 148 144 144 146 145 143 144 145 142 141 134 127 131 129 127 126 128 128 147 138 131 130 130 132 128 126 126 130 128 123 114 111
221 219 217 208 205 203 204 190 181 196 190 180 176 147 167 179 178 175 173 163 161 162 162 158 160 155 151 154 151 150 146 148 147 147 150 153 148 142 147 140 130 132 133 135 134 130 133 133 146 137 133 133 133 131 124 120 124 123 121 115 111 111
229 220 214 213 213 207 192 188 196 192 174 167 157 166 174 172 177 175 172 163 170 167 162 160 160 158 158 154 152 152 153 155 158 152 146 141 147 148 139 138 140 135 140 141 133 128 131 136 145 138 134 134 132 129 122 119 121 113 110 110 111 110
234 225 218 218 204 188 175 192 188 156 155 160 165 171 167 175 170 176 173 172 168 163 163 165 166 161 158 157 156 158 161 159 150 151 155 157 156 155 155 153 149 149 140 137 133 129 134 140 146 141 137 134 132 127 121 115 112 108 106 103 101 99
223 218 225 194 176 189 187 188 168 162 169 162 166 168 173 171 174 176 168 174 174 173 171 166 166 162 161 162 162 163 164 162 162 158 157 148 137 119 123 120 131 142 143 138 138 132 134 145 149 144 139 135 131 126 117 119 115 113 112 107 103 99
220 225 186 172 185 182 192 170 163 164 158 168 174 170 172 171 178 181 180 182 177 175 170 169 167 168 168 166 165 169 169 165 163 159 153 144 146 145 150 149 145 143 143 145 146 139 135 140 153 150 142 137 134 126 120 123 118 119 119 117 115 110
237 212 178 178 189 191 168 160 164 161 165 172 168 171 176 181 190 186 182 181 174 175 175 176 173 169 170 172 177 174 169 159 151 159 165 157 153 152 151 141 132 135 145 149 149 150 141 144 154 155 148 140 139 134 132 135 128 126 129 129 127 121
202 186 170 170 190 182 159 160 160 162 172 174 176 180 184 195 194 188 185 181 176 177 174 173 173 173 173 178 177 171 166 168 163 150 148 144 140 139 134 137 135 133 132 138 142 141 141 144 155 157 151 145 142 138 137 140 135 135 142 141 135 133
121 129 176 194 192 152 157 155 161 171 174 177 172 185 200 203 193 168 158 159 161 162 168 174 174 175 176 175 166 162 162 146 142 154 146 134 132 134 136 135 140 142 142 143 144 146 147 148 154 159 156 150 148 148 146 150 145 146 147 150 146 137
169 173 188 161 138 147 150 153 156 174 174 169 179 205 198 154 142 152 156 149 155 162 167 166 173 168 164 157 152 138 132 145 149 144 141 137 132 132 136 141 141 137 135 138 139 139 155 162 154 163 162 157 154 155 153 157 154 145 146 143 144 149
105 95 83 121 143 147 153 153 164 169 169 174 201 195 147 147 150 146 148 154 157 158 157 156 147 146 145 135 136 142 143 136 139 146 144 143 146 146 144 144 142 141 134 130 138 147 158 171 174 159 165 163 160 158 159 157 155 158 146 139 145 153
96 89 107 128 138 148 155 156 161 169 169 195 197 154 150 146 146 149 152 153 156 160 159 157 155 154 150 151 153 151 153 153 152 153 150 148 147 146 146 150 150 146 144 139 145 152 161 168 169 166 165 168 165 163 163 155 156 152 142 144 149 159
97 95 73 102 133 148 158 161 163 169 182 201 151 145 139 145 149 148 151 157 158 155 158 159 158 155 156 155 153 153 153 157 156 153 158 158 153 153 153 159 157 153 157 156 153 162 167 171 182 173 172 171 169 167 161 164 161 152 150 148 148 153
120 99 70 48 93 118 153 164 159 167 187 172 138 143 145 141 142 146 151 154 155 156 152 149 156 158 158 160 158 158 161 159 161 161 171 165 167 166 163 164 165 164 159 158 165 164 169 173 176 180 180 177 174 167 168 168 161 157 154 146 154 154
83 88 85 48 37 65 88 93 135 165 175 131 138 136 137 139 140 146 147 143 147 150 147 147 146 150 158 161 171 171 169 167 171 170 166 171 171 170 167 165 170 171 169 177 167 167 166 168 175 181 186 184 172 171 175 168 163 157 153 150 159 173
88 88 89 69 12 46 75 87 70 115 129 139 131 130 131 136 138 136 140 148 143 140 153 155 159 158 155 165 160 155 162 163 173 166 168 177 173 175 174 172 176 175 176 181 182 172 162 171 179 182 186 181 172 176 173 168 161 159 153 145 157 145
106 108 97 79 14 23 66 73 74 107 118 122 127 128 128 136 148 150 152 145 142 149 159 158 153 158 162 172 170 168 168 178 183 181 184 183 182 178 184 180 183 184 184 184 175 155 168 184 188 192 189 183 174 173 168 163 164 166 160 159 152 135
96 95 94 66 354 34 63 62 55 75 117 130 136 139 135 137 130 126 129 134 136 145 152 155 162 169 165 165 177 185 185 183 189 195 208 238 241 216 192 185 191 194 190 178 166 163 177 184 198 210 192 175 177 170 163 170 176 169 164 170 144 115
91 94 86 42 8 44 66 58 48 47 75 116 138 139 134 135 131 131 141 146 152 152 159 160 161 162 162 169 174 170 151 145 185 205 204 211 221 200 343 216 210 199 179 181 191 184 179 192 208 179 176 180 177 175 169 168 168 168 164 168 153 136
86 94 81 43 33 56 58 58 33 42 38 89 132 137 139 140 139 143 145 153 165 165 164 158 161 168 163 168 171 175 176 156 144 148 168 190 212 210 221 211 191 179 194 194 182 201 283 92 158 171 177 177 175 171 170 170 173 168 168 157 133 111
73 96 127 72 65 68 67 71 35 28 16 41 101 123 142 155 151 164 170 167 157 154 160 160 156 155 162 172 174 178 180 181 188 236 201 190 203 212 208 210 206 202 189 188 171 155 117 171 167 168 171 176 173 171 170 171 169 167 163 164 147 126
87 66 66 64 63 56 48 54 9 357 8 18 55 112 138 159 156 150 153 155 155 154 155 158 163 173 173 176 177 186 185 188 193 197 206 197 196 201 203 202 198 190 188 185 180 182 170 164 166 168 173 173 172 170 171 169 167 164 165 165 156 142
65 67 72 71 75 82 71 52 345 349 345 1 30 98 142 153 151 152 154 163 164 159 168 174 177 177 188 186 188 189 191 202 200 204 185 173 176 197 212 208 194 183 176 175 174 171 167 166 168 171 171 172 172 171 167 165 158 158 165 160 162 162
71 58 52 68 69 67 63 24 325 306 328 32 81 92 91 107 104 95 128 145 154 167 175 177 176 182 179 181 190 194 198 204 204 196 192 195 195 197 195 194 195 193 182 176 174 174 171 172 173 173 174 173 175 171 168 156 144 145 141 130 110 172
62 51 41 56 62 59 43 359 329 333 330 54 92 105 111 113 118 119 123 145 158 161 164 174 179 179 181 190 199 201 203 200 198 201 208 208 212 206 199 199 188 184 195 184 183 183 181 179 181 178 178 178 177 173 169 147 171 168 183 178 177 170